Location: downtown San Diego
(32.7310°N, 117.1990°W)
Time: 20:41:18
(UTC-08:00)

Cosmos 1975 Rocket - Pass Details

Date: 19 May 2017
Orbit: 604 x 633 km, 82.5° (Epoch: 20 November)

Event Time Altitude Azimuth Distance (km) Brightness Sun altitude
Rises 20:07:07 0° 168° (SSE) 2,909 6.1 -5.2°
Reaches altitude 10° 20:09:26 10° 161° (SSE) 2,007 5.3 -5.7°
Maximum altitude 20:13:36 40° 92° (E) 929 3.6 -6.4°
Drops below altitude 10° 20:17:48 10° 23° (NNE) 2,020 5.8 -7.2°
Sets 20:20:08 0° 16° (NNE) 2,929 6.7 -7.6°
